Weather History for Dyersburg, TN

Change the Weather History Date:

Monday, March 4, 2013

  Actual Average Record
Temperature  
Mean Temperature 48 °F -  
Max Temperature 62 °F 52 °F 73 °F (2004)
Min Temperature 35 °F 36 °F 15 °F (2014)
Degree Days  
Heating Degree Days 16    
Moisture  
Dew Point 27 °F    
Average Humidity 42    
Maximum Humidity 62    
Minimum Humidity 30    
Precipitation  
Precipitation 0.04 in - - ()
Sea Level Pressure  
Sea Level Pressure 29.90 in    
Wind  
Wind Speed 8 mph (SE)    
Max Wind Speed 18 mph    
Max Gust Speed 28 mph    
Visibility 10 miles    
Events      
Averages and records for this station are not official NWS values.
T = Trace of Precipitation, MM = Missing Value Source: NWS Daily Summary

Daily Weather History Graph

Daily Weather History Graph

Search for Another Location

Airport:

Trip Planner

Search our weather history database for the weather conditions in past years. The results will help you decide how hot, cold, wet, or windy it might be!

Date:

Astronomy

Mar. 04, 2013 Rise Set
Actual Time 6:23 AM CST 5:55 PM CST
Civil Twilight 5:57 AM CST 6:21 PM CST
Nautical Twilight 5:28 AM CST 6:50 PM CST
Astronomical Twilight 4:58 AM CST 7:20 PM CST
Moon 12:25 AM CST (3/4) 10:45 AM CST (3/4)
Length of Visible Light 12h 23m
Length of Day
11h 32m
Waning Gibbous, 52% of the Moon is Illuminated
Mar 4
Waning Gibbous
Mar 4
Last Quarter
Mar 11
New
Mar 19
First Quarter
Mar 27
Full

Hourly Weather History & Observations

Time (CST) Temp. Windchill Dew Point Humidity Pressure Visibility Wind Dir Wind Speed Gust Speed Precip Events Conditions
12:15 AM 37.4 °F 34.9 °F 19.4 °F 48% 30.10 in 10.0 mi SSE 3.5 mph - N/A   Clear
12:35 AM 37.4 °F 32.8 °F 19.4 °F 48% 30.10 in 10.0 mi SE 5.8 mph - N/A   Clear
12:55 AM 37.4 °F 32.8 °F 19.4 °F 48% 30.09 in 10.0 mi ESE 5.8 mph - N/A   Clear
1:15 AM 37.4 °F 33.8 °F 19.4 °F 48% 30.09 in 10.0 mi ESE 4.6 mph - N/A   Clear
1:35 AM 37.4 °F 34.9 °F 19.4 °F 48% 30.09 in 10.0 mi East 3.5 mph - N/A   Clear
1:55 AM 37.4 °F 33.8 °F 19.4 °F 48% 30.08 in 10.0 mi ESE 4.6 mph - N/A   Clear
2:15 AM 35.6 °F 31.7 °F 19.4 °F 52% 30.07 in 10.0 mi ESE 4.6 mph - N/A   Clear
2:35 AM 37.4 °F 32.8 °F 19.4 °F 48% 30.07 in 10.0 mi ESE 5.8 mph - N/A   Clear
2:55 AM 37.4 °F 32.1 °F 19.4 °F 48% 30.05 in 10.0 mi ESE 6.9 mph - N/A   Clear
3:15 AM 37.4 °F 31.4 °F 19.4 °F 48% 30.04 in 10.0 mi ESE 8.1 mph - N/A   Clear
3:35 AM 37.4 °F 32.1 °F 19.4 °F 48% 30.04 in 10.0 mi ESE 6.9 mph - N/A   Clear
3:55 AM 37.4 °F 31.4 °F 19.4 °F 48% 30.04 in 10.0 mi ESE 8.1 mph - N/A   Clear
4:15 AM 37.4 °F 32.1 °F 19.4 °F 48% 30.04 in 10.0 mi ESE 6.9 mph - N/A   Clear
4:35 AM 37.4 °F 32.1 °F 19.4 °F 48% 30.04 in 10.0 mi SE 6.9 mph - N/A   Clear
4:55 AM 37.4 °F 31.4 °F 19.4 °F 48% 30.04 in 10.0 mi ESE 8.1 mph - N/A   Clear
5:15 AM 37.4 °F 30.3 °F 19.4 °F 48% 30.03 in 10.0 mi ESE 10.4 mph - N/A   Clear
5:35 AM 37.4 °F 30.8 °F 19.4 °F 48% 30.02 in 10.0 mi ESE 9.2 mph - N/A   Clear
6:15 AM 37.4 °F 29.8 °F 19.4 °F 48% 30.01 in 10.0 mi ESE 11.5 mph - N/A   Clear
6:35 AM 37.4 °F 30.3 °F 19.4 °F 48% 30.02 in 10.0 mi SE 10.4 mph - N/A   Clear
6:55 AM 39.2 °F 32.0 °F 19.4 °F 45% 30.01 in 10.0 mi SE 11.5 mph - N/A   Clear
7:15 AM 39.2 °F 31.2 °F 19.4 °F 45% 30.02 in 10.0 mi SE 13.8 mph - N/A   Clear
7:35 AM 39.2 °F 31.2 °F 19.4 °F 45% 30.02 in 10.0 mi SE 13.8 mph - N/A   Clear
7:55 AM 39.2 °F 31.6 °F 19.4 °F 45% 30.02 in 10.0 mi SE 12.7 mph 17.3 mph N/A   Clear
8:15 AM 39.2 °F 30.8 °F 21.2 °F 49% 30.01 in 10.0 mi SE 15.0 mph 21.9 mph N/A   Clear
8:35 AM 42.8 °F 36.2 °F 21.2 °F 42% 30.01 in 10.0 mi SE 12.7 mph 19.6 mph N/A   Clear
8:55 AM 42.8 °F 35.8 °F 21.2 °F 42% 29.99 in 10.0 mi SE 13.8 mph 19.6 mph N/A   Clear
9:15 AM 44.6 °F 37.4 °F 24.8 °F 46% 29.98 in 10.0 mi SE 16.1 mph 21.9 mph N/A   Clear
9:35 AM 46.4 °F 39.2 °F 24.8 °F 43% 29.97 in 10.0 mi SSE 18.4 mph 27.6 mph N/A   Clear
9:55 AM 50.0 °F - 26.6 °F 40% 29.96 in 10.0 mi SSE 15.0 mph 21.9 mph N/A   Clear
10:15 AM 51.8 °F - 26.6 °F 38% 29.94 in 10.0 mi SSE 13.8 mph 23.0 mph N/A   Clear
10:35 AM 53.6 °F - 28.4 °F 38% 29.93 in 10.0 mi SE 17.3 mph 21.9 mph N/A   Clear
10:55 AM 53.6 °F - 28.4 °F 38% 29.92 in 10.0 mi SE 16.1 mph 26.5 mph N/A   Clear
11:15 AM 53.6 °F - 30.2 °F 41% 29.91 in 10.0 mi SSE 12.7 mph 21.9 mph N/A   Clear
11:35 AM 55.4 °F - 30.2 °F 38% 29.90 in 10.0 mi SSE 11.5 mph 19.6 mph N/A   Clear
11:55 AM 57.2 °F - 30.2 °F 36% 29.89 in 10.0 mi South 9.2 mph - N/A   Clear
12:15 PM 57.2 °F - 30.2 °F 36% 29.88 in 10.0 mi SSE 12.7 mph 21.9 mph N/A   Clear
12:55 PM 62.6 °F - 32.0 °F 32% 29.84 in 10.0 mi South 11.5 mph 20.7 mph N/A   Mostly Cloudy
1:15 PM 62.6 °F - 30.2 °F 30% 29.83 in 10.0 mi South 13.8 mph 21.9 mph N/A   Overcast
1:35 PM 62.6 °F - 30.2 °F 30% 29.81 in 10.0 mi SSE 8.1 mph - N/A   Overcast
1:55 PM 62.6 °F - 30.2 °F 30% 29.80 in 10.0 mi SSE 9.2 mph 21.9 mph N/A   Overcast
2:15 PM 60.8 °F - 30.2 °F 31% 29.80 in 10.0 mi SSE 9.2 mph - N/A   Overcast
2:35 PM 60.8 °F - 32.0 °F 34% 29.80 in 10.0 mi SSE 6.9 mph - N/A   Overcast
2:55 PM 62.6 °F - 32.0 °F 32% 29.78 in 10.0 mi South 5.8 mph - N/A   Overcast
3:15 PM 62.6 °F - 32.0 °F 32% 29.78 in 10.0 mi SSW 4.6 mph - N/A   Overcast
3:35 PM 62.6 °F - 32.0 °F 32% 29.79 in 10.0 mi SSW 4.6 mph - N/A   Overcast
3:55 PM 60.8 °F - 32.0 °F 34% 29.79 in 10.0 mi WSW 6.9 mph - N/A   Overcast
4:15 PM 59.0 °F - 33.8 °F 39% 29.78 in 10.0 mi Calm Calm - N/A   Overcast
4:35 PM 60.8 °F - 33.8 °F 36% 29.78 in 10.0 mi SSW 5.8 mph - N/A   Overcast
4:55 PM 60.8 °F - 33.8 °F 36% 29.78 in 10.0 mi SSE 5.8 mph - N/A   Overcast
5:15 PM 60.8 °F - 32.0 °F 34% 29.79 in 10.0 mi South 3.5 mph - N/A   Overcast
5:35 PM 60.8 °F - 32.0 °F 34% 29.79 in 10.0 mi South 5.8 mph - N/A   Overcast
5:55 PM 60.8 °F - 32.0 °F 34% 29.79 in 10.0 mi South 4.6 mph - N/A   Overcast
6:15 PM 60.8 °F - 32.0 °F 34% 29.79 in 10.0 mi SSE 4.6 mph - N/A   Overcast
6:35 PM 60.8 °F - 32.0 °F 34% 29.80 in 10.0 mi ESE 4.6 mph - N/A   Overcast
6:55 PM 59.0 °F - 33.8 °F 39% 29.80 in 10.0 mi SE 9.2 mph - N/A   Overcast
7:15 PM 57.2 °F - 33.8 °F 41% 29.79 in 10.0 mi SE 6.9 mph - N/A   Overcast
7:35 PM 57.2 °F - 33.8 °F 41% 29.79 in 10.0 mi SE 8.1 mph - N/A   Overcast
7:55 PM 57.2 °F - 33.8 °F 41% 29.79 in 10.0 mi SE 8.1 mph - N/A   Overcast
8:35 PM 57.2 °F - 33.8 °F 41% 29.78 in 10.0 mi SE 8.1 mph - N/A   Overcast
8:55 PM 57.2 °F - 33.8 °F 41% 29.77 in 10.0 mi ESE 8.1 mph - N/A   Overcast
9:15 PM 57.2 °F - 33.8 °F 41% 29.77 in 10.0 mi ESE 8.1 mph - N/A   Overcast
9:35 PM 57.2 °F - 33.8 °F 41% 29.76 in 10.0 mi SE 6.9 mph - N/A   Overcast
9:55 PM 57.2 °F - 33.8 °F 41% 29.75 in 10.0 mi SSE 10.4 mph 16.1 mph N/A   Mostly Cloudy
10:15 PM 57.2 °F - 33.8 °F 41% 29.75 in 10.0 mi South 11.5 mph - N/A   Mostly Cloudy
10:35 PM 57.2 °F - 35.6 °F 44% 29.75 in 10.0 mi SSE 10.4 mph - N/A   Overcast
10:55 PM 55.4 °F - 37.4 °F 51% 29.75 in 10.0 mi WSW 3.5 mph - N/A   Mostly Cloudy
11:15 PM 55.4 °F - 37.4 °F 51% 29.75 in 10.0 mi Calm Calm - N/A   Overcast
11:35 PM 53.6 °F - 39.2 °F 58% 29.75 in 10.0 mi SSW 4.6 mph - 0.04 in   Overcast
11:55 PM 53.6 °F - 41.0 °F 62% 29.75 in 10.0 mi Calm Calm - 0.04 in   Overcast